• en Belgique
  • Liste des pays
  • À 7 jours
  • Température de l'eau
  • Carte satellitaire
  • Carte météo
  • Widgets météo
  • user-avatar
    Se connecter

    Météo par heure à Crète

    Ce jour, 11 Décembre, Lundi

    Heure Température Précipitation Vent Pression Humidité
    00:00 +9°C° 0 mm 3 m/s 713 mmHg 74%
    01:00 +9°C° 0 mm 2 m/s 713 mmHg 75%
    02:00 +9°C° 0 mm 2 m/s 713 mmHg 79%
    03:00 +10°C° 0 mm 1 m/s 713 mmHg 79%
    04:00 +9°C° 0 mm 1 m/s 713 mmHg 80%
    05:00 +9°C° 0 mm 1 m/s 713 mmHg 80%
    06:00 +9°C° 0 mm 1 m/s 713 mmHg 80%
    07:00 +9°C° 0 mm 1 m/s 713 mmHg 79%
    08:00 +10°C° 0 mm 1 m/s 714 mmHg 78%
    09:00 +12°C° 0 mm 1 m/s 714 mmHg 71%
    10:00 +13°C° 0 mm 1 m/s 714 mmHg 64%
    11:00 +14°C° 0 mm 1 m/s 714 mmHg 56%
    12:00 +14°C° 0 mm 2 m/s 714 mmHg 55%
    13:00 +14°C° 0 mm 2 m/s 714 mmHg 55%
    14:00 +14°C° 0 mm 2 m/s 714 mmHg 54%
    15:00 +14°C° 0 mm 2 m/s 714 mmHg 57%
    16:00 +13°C° 0 mm 2 m/s 714 mmHg 61%
    17:00 +12°C° 0 mm 1 m/s 714 mmHg 64%
    18:00 +12°C° 0 mm 1 m/s 714 mmHg 66%
    19:00 +11°C° 0 mm 1 m/s 714 mmHg 68%
    20:00 +10°C° 0 mm 1 m/s 714 mmHg 70%
    21:00 +10°C° 0 mm 1 m/s 714 mmHg 70%
    22:00 +10°C° 0 mm 1 m/s 714 mmHg 70%
    23:00 +9°C° 0 mm 0 m/s 714 mmHg 69%

    Demain, 12 Décembre, Mardi

    Heure Température Précipitation Vent Pression Humidité
    00:00 +10°C° 0 mm 1 m/s 714 mmHg 71%
    01:00 +10°C° 0 mm 1 m/s 714 mmHg 72%
    02:00 +9°C° 0 mm 1 m/s 714 mmHg 74%
    03:00 +9°C° 0 mm 1 m/s 714 mmHg 76%
    04:00 +9°C° 0 mm 1 m/s 714 mmHg 77%
    05:00 +9°C° 0 mm 1 m/s 714 mmHg 79%
    06:00 +9°C° 0 mm 1 m/s 714 mmHg 79%
    07:00 +10°C° 0 mm 1 m/s 714 mmHg 80%
    08:00 +10°C° 0 mm 1 m/s 714 mmHg 80%
    09:00 +11°C° 0 mm 1 m/s 715 mmHg 73%
    10:00 +13°C° 0 mm 1 m/s 715 mmHg 66%
    11:00 +15°C° 0 mm 1 m/s 715 mmHg 59%
    12:00 +15°C° 0 mm 1 m/s 715 mmHg 58%
    13:00 +15°C° 0 mm 2 m/s 715 mmHg 57%
    14:00 +16°C° 0 mm 2 m/s 714 mmHg 57%
    15:00 +15°C° 0 mm 2 m/s 714 mmHg 60%
    16:00 +14°C° 0 mm 2 m/s 714 mmHg 64%
    17:00 +14°C° 0 mm 2 m/s 714 mmHg 68%
    18:00 +13°C° 0 mm 2 m/s 714 mmHg 71%
    19:00 +12°C° 0 mm 2 m/s 714 mmHg 73%
    20:00 +12°C° 0 mm 2 m/s 715 mmHg 76%
    21:00 +10°C° 0 mm 2 m/s 715 mmHg 76%
    22:00 +10°C° 0 mm 2 m/s 715 mmHg 77%
    23:00 +10°C° 0 mm 2 m/s 715 mmHg 77%

    Après-demain, 13 Décembre, Mercredi

    Heure Température Précipitation Vent Pression Humidité
    00:00 +10°C° 0 mm 2 m/s 714 mmHg 77%
    01:00 +10°C° 0 mm 2 m/s 714 mmHg 77%
    02:00 +9°C° 0 mm 2 m/s 714 mmHg 76%
    03:00 +9°C° 0 mm 2 m/s 714 mmHg 76%
    04:00 +9°C° 0 mm 2 m/s 714 mmHg 76%
    05:00 +9°C° 0 mm 3 m/s 714 mmHg 76%
    06:00 +10°C° 0 mm 3 m/s 714 mmHg 75%
    07:00 +10°C° 0 mm 3 m/s 714 mmHg 75%
    08:00 +10°C° 0 mm 3 m/s 714 mmHg 75%
    09:00 +12°C° 0 mm 3 m/s 714 mmHg 69%
    10:00 +13°C° 0 mm 3 m/s 715 mmHg 64%
    11:00 +16°C° 0 mm 3 m/s 715 mmHg 59%
    12:00 +16°C° 0 mm 3 m/s 714 mmHg 59%
    13:00 +15°C° 0 mm 4 m/s 714 mmHg 59%
    14:00 +16°C° 0 mm 5 m/s 714 mmHg 59%
    15:00 +15°C° 0 mm 5 m/s 713 mmHg 64%
    16:00 +14°C° 0 mm 5 m/s 713 mmHg 70%
    17:00 +13°C° 0 mm 5 m/s 713 mmHg 75%
    18:00 +13°C° 0 mm 5 m/s 713 mmHg 78%
    19:00 +12°C° 0 mm 4 m/s 713 mmHg 80%
    20:00 +11°C° 0 mm 4 m/s 713 mmHg 83%
    21:00 +11°C° 0 mm 4 m/s 713 mmHg 83%
    22:00 +11°C° 0 mm 4 m/s 713 mmHg 84%
    23:00 +11°C° 0 mm 4 m/s 713 mmHg 84%

    14 Décembre, Jeudi

    Heure Température Précipitation Vent Pression Humidité
    00:00 +11°C° 0 mm 4 m/s 713 mmHg 84%
    01:00 +9°C° 0 mm 5 m/s 712 mmHg 83%
    02:00 +9°C° 0 mm 5 m/s 712 mmHg 83%
    03:00 +9°C° 0 mm 5 m/s 712 mmHg 83%
    04:00 +9°C° 0 mm 5 m/s 711 mmHg 83%
    05:00 +9°C° 0 mm 5 m/s 711 mmHg 83%
    06:00 +9°C° 0 mm 5 m/s 711 mmHg 83%
    07:00 +9°C° 0 mm 5 m/s 712 mmHg 83%
    08:00 +10°C° 0 mm 6 m/s 712 mmHg 83%
    09:00 +11°C° 0 mm 6 m/s 712 mmHg 77%
    10:00 +13°C° 0 mm 6 m/s 712 mmHg 70%
    11:00 +15°C° 0 mm 6 m/s 712 mmHg 64%
    12:00 +15°C° 0 mm 6 m/s 712 mmHg 61%
    13:00 +16°C° 0 mm 6 m/s 711 mmHg 58%
    14:00 +16°C° 0 mm 7 m/s 711 mmHg 56%
    15:00 +15°C° 0 mm 6 m/s 711 mmHg 61%
    16:00 +15°C° 0 mm 6 m/s 711 mmHg 67%
    17:00 +14°C° 0 mm 6 m/s 711 mmHg 73%
    18:00 +13°C° 0 mm 5 m/s 711 mmHg 75%
    19:00 +12°C° 0 mm 5 m/s 711 mmHg 77%
    20:00 +12°C° 0 mm 5 m/s 711 mmHg 80%
    21:00 +12°C° 0 mm 5 m/s 711 mmHg 81%
    22:00 +12°C° 0 mm 5 m/s 711 mmHg 82%
    23:00 +10°C° 0 mm 5 m/s 711 mmHg 83%

    15 Décembre, Vendredi

    Heure Température Précipitation Vent Pression Humidité
    00:00 +10°C° 0 mm 5 m/s 710 mmHg 83%
    01:00 +10°C° 0 mm 5 m/s 710 mmHg 83%
    02:00 +10°C° 0 mm 6 m/s 710 mmHg 84%
    03:00 +9°C° 0 mm 5 m/s 710 mmHg 84%
    04:00 +9°C° 0 mm 5 m/s 710 mmHg 83%
    05:00 +9°C° 0 mm 5 m/s 709 mmHg 83%
    06:00 +10°C° 0 mm 4 m/s 710 mmHg 82%
    07:00 +10°C° 0 mm 4 m/s 710 mmHg 81%
    08:00 +10°C° 0 mm 4 m/s 710 mmHg 80%
    09:00 +11°C° 0 mm 4 m/s 711 mmHg 74%
    10:00 +13°C° 0 mm 4 m/s 711 mmHg 68%
    11:00 +14°C° 0 mm 4 m/s 711 mmHg 63%
    12:00 +14°C° 0 mm 4 m/s 711 mmHg 63%
    13:00 +14°C° 0 mm 4 m/s 711 mmHg 63%
    14:00 +15°C° 0 mm 5 m/s 711 mmHg 62%
    15:00 +14°C° 0 mm 5 m/s 710 mmHg 66%
    16:00 +13°C° 0 mm 5 m/s 710 mmHg 70%
    17:00 +12°C° 0 mm 5 m/s 710 mmHg 73%
    18:00 +12°C° 0 mm 5 m/s 711 mmHg 76%
    19:00 +12°C° 0 mm 4 m/s 711 mmHg 78%
    20:00 +11°C° 0 mm 4 m/s 711 mmHg 80%
    21:00 +11°C° 0 mm 4 m/s 711 mmHg 80%
    22:00 +11°C° 0 mm 4 m/s 711 mmHg 81%
    23:00 +11°C° 0 mm 3 m/s 711 mmHg 81%

    16 Décembre, Samedi

    Heure Température Précipitation Vent Pression Humidité
    00:00 +11°C° 0 mm 4 m/s 711 mmHg 82%
    01:00 +11°C° 0 mm 4 m/s 711 mmHg 82%
    02:00 +11°C° 0 mm 4 m/s 711 mmHg 82%
    03:00 +11°C° 0 mm 4 m/s 711 mmHg 83%
    04:00 +11°C° 0 mm 4 m/s 710 mmHg 83%
    05:00 +10°C° 0 mm 4 m/s 710 mmHg 84%
    06:00 +10°C° 0 mm 4 m/s 711 mmHg 84%
    07:00 +11°C° 0 mm 4 m/s 711 mmHg 85%
    08:00 +11°C° 0 mm 3 m/s 711 mmHg 85%
    09:00 +12°C° 0 mm 3 m/s 711 mmHg 80%
    10:00 +13°C° 0 mm 3 m/s 711 mmHg 75%
    11:00 +14°C° 0 mm 3 m/s 711 mmHg 70%
    12:00 +14°C° 0 mm 3 m/s 711 mmHg 70%
    13:00 +16°C° 0 mm 3 m/s 710 mmHg 69%
    14:00 +16°C° 0 mm 3 m/s 710 mmHg 69%
    15:00 +14°C° 0 mm 3 m/s 710 mmHg 73%
    16:00 +13°C° 0 mm 3 m/s 710 mmHg 78%
    17:00 +13°C° 0 mm 2 m/s 710 mmHg 82%
    18:00 +13°C° 0 mm 2 m/s 710 mmHg 84%
    19:00 +12°C° 0 mm 2 m/s 710 mmHg 86%
    20:00 +10°C° 0 mm 2 m/s 710 mmHg 88%
    21:00 +10°C° 0 mm 2 m/s 710 mmHg 87%
    22:00 +10°C° 0 mm 3 m/s 710 mmHg 86%
    23:00 +10°C° 0 mm 3 m/s 710 mmHg 86%
    Voir plus